OBJECT F, 57585

Orbit data source: Space-Track

You're viewing an Uncataloged Satellite

Recently launched and/or uncataloged satellites may have evolving metadata. Metadata may include but not limited to: Owner, Maufacturer, Bus, Motor, and Mission.

OBJECT F, 57585 is a Chinese satellite in SSO that was launched on Thu, 10 Aug 2023 UTC via a GUSHENXING 1 launch vehicle from the Jiuquan Satellite Launch Center, China (JSC). Unknown objects in Earth's orbit typically refer to objects detected orbiting the Earth but have not yet been identified or cataloged. These objects could be anything from previously untracked satellites, spent rocket stages, debris from satellite collisions, or even natural meteoroids temporarily captured by Earth's gravity.

Loading next visibility...
Identifier
57585, 2023-117F
Orbit
SSO
Country
Flag of CNCN / PRC
Related business
None
Manufacturer
Unknown
Mission
Operational Commercial Imaging
Bus & Motor
Unknown
Mass
Unknown
Launch date (UTC)
2023-08-10 (3 years ago)
Launch vehicle
GUSHENXING 1
Launch site
Jiuquan Satellite Launch Center, China (JSC)
Object type
Unknown
Shape & HBR
Box, 0.8 m
Radar Cross Section
2.000 m², Large (>1 m²)

Expand to show TLE details & history
Last TLE update: 21 hours ago

TLE from 21 hours ago
0 OBJECT F
1 57585U 23117F   26172.54393561  .00017887  00000-0  37770-3 0  9996
2 57585  97.4189 258.6926 0006393 194.6814 165.4250 15.45231956159528
Epoch: 2026-06-21T13:03Z
TLE epoch observation values (Epoch: 2026-06-21T13:03:16.036Z)
Latitude
-0.00004°
Longitude
153.1331°
Altitude
438.035 km
Speed
7.647 km/s
True Right ascension
17h 14m 46s
True Declination
0° 00' 00"
Sunlit
Object was in full shadow at epoch
Visualization orbit readout
Latitude
Unknown
Longitude
Unknown
Altitude
Unknown
Speed
Unknown
Apparent Right ascension
Unknown
Apparent Declination
Unknown
Sunlit
N/A
Visualization observer readout
Local Sidereal Time
21:25:29
Azimuth
Unknown
Elevation
Unknown
Doppler factor
Unknown
Orbital elements
Apogee altitude
431.98 km
Perigee altitude
423.279 km
Semi-major axis
6,805.766 km
Eccentricity
0.00064
Inclination
97.4189°
RAAN
258.6926°
Arg. of periapsis
194.6814°
True anomaly
165.44342°
Mean anomaly
165.425°
Eccentric anomaly
165.43421°
Mean motion
3.8657 °/min
Orbital period
93.13 mins
BSTAR
0.0003777
Loading maneuver chart data...
Computing Atmospheric mass density...
Loading historical data...
Loading historical data...
Loading historical data...
Loading historical data...
Loading historical data...
Loading historical data...
Loading historical data...

Documentation

Showing up to 5 results
|